STARLINK-3918, 52486

Orbit data source: Space-Track

STARLINK-3918, 52486 is a payload satellite owned by SpaceX/Seattle (US) in LEO that was launched on Fri, 06 May 2022 UTC via an FALCON 9 launch vehicle from the Air Force Eastern Test Range (AFETR). Payload-class satellites include a variety of spacecraft equipped with specific instruments for various scientific and technological missions. These include communications satellites like Starlink; space stations such as the ISS; scientific satellites like the Hubble; Earth observation satellites from companies like Planet Labs, Umbra, and HawkEye 360; GPS; miniature CubeSats for education and research; and military/defense satellites.

Loading next visibility...
Identifier
52486, 2022-049AM
Orbit
LEO
Country
Flag of USUS
Related business
Manufacturer
SpaceX/Seattle
Mission
Operational Commercial Communications
Bus & Motor
STARLINK, Unknown motor
Mass
297 kg wet, ~220 kg dry
Launch date (UTC)
2022-05-06 (4 years ago)
Launch vehicle
FALCON 9
Launch site
Air Force Eastern Test Range (AFETR)
Object type
Payload
Rocket body
Debris
Shape & HBR
Box + 1 Pan, 10.1 m
Radar Cross Section
13.562 m², Large (>1 m²)

Expand to show TLE details & history
Last TLE update: 17 hours ago

TLE from 17 hours ago
0 STARLINK-3918
1 52486U 22049AM  25346.57771820 -.00001724  00000-0 -90267-4 0  9993
2 52486  53.2178  90.1825 0001287  88.5986 271.5153 15.08835860199108
Epoch: 2025-12-12T13:51Z
TLE epoch observation values (Epoch: 2025-12-12T13:51:54.852Z)
Latitude
-0.00007°
Longitude
160.68656°
Altitude
540.63 km
Speed
7.593 km/s
True Right ascension
06h 00m 43s
True Declination
0° 00' 00"
Sunlit
Object was in full shadow at epoch
Visualization orbit readout
Latitude
Unknown
Longitude
Unknown
Altitude
Unknown
Speed
Unknown
Apparent Right ascension
Unknown
Apparent Declination
Unknown
Sunlit
N/A
Visualization observer readout
Local Sidereal Time
05:21:41
Azimuth
Unknown
Elevation
Unknown
Doppler factor
Unknown
Orbital elements
Apogee altitude
540.891 km
Perigee altitude
539.111 km
Semi-major axis
6,918.138 km
Eccentricity
0.00013
Inclination
53.2178°
RAAN
90.1825°
Arg. of periapsis
88.5986°
True anomaly
271.50056°
Mean anomaly
271.5153°
Eccentric anomaly
271.50793°
Mean motion
3.77189 °/min
Orbital period
95.44 mins
BSTAR
-0.000090267
Loading maneuver chart data...
Computing Atmospheric mass density...
Loading historical data...
Loading historical data...
Loading historical data...
Loading historical data...
Loading historical data...
Loading historical data...
Loading historical data...

Documentation

Showing up to 5 results
|